NOAA 16 DEB, 41280

Orbit data source: Space-Track

NOAA 16 DEB, 41280 is space debris in SSO originally from a launch on Thu, 21 Sep 2000 UTC launched from the Air Force Western Test Range (AFWTR). Debris objects in space refer to the collection of defunct objects orbiting the Earth. Examples of debris include non-operational satellites, rocket bodies, and fragments generated from explosions, collisions, or faulty payload assembly.

Loading next visibility...
Identifier
41280, 2000-055GG
Orbit
SSO
Country
Flag of USUS
Related business
Manufacturer
Unknown
Mission
Spacecraft
Bus & Motor
Unknown
Mass
Unknown
Launch date (UTC)
2000-09-21 (25 years ago)
Launch vehicle
Unknown
Launch site
Air Force Western Test Range (AFWTR)
Object type
Payload
Rocket body
Debris
Shape & HBR
Unknown shape, 0.1 m
Radar Cross Section
Small (<0.1 m²)

Expand to show TLE details & history
Last TLE update: 18 hours ago

TLE from 18 hours ago
0 NOAA 16 DEB
1 41280U 00055GG  26037.47600795  .00004871  00000-0  22637-2 0  9993
2 41280  98.6657  42.8894 0028017 210.8709 149.0822 14.20845423520699
Epoch: 2026-02-06T11:25Z
TLE epoch observation values (Epoch: 2026-02-06T11:25:27.086Z)
Latitude
-0.00003°
Longitude
94.91321°
Altitude
842.738 km
Speed
7.422 km/s
True Right ascension
02h 51m 33s
True Declination
0° 00' 00"
Sunlit
Object was in daylight at epoch
Visualization orbit readout
Latitude
Unknown
Longitude
Unknown
Altitude
Unknown
Speed
Unknown
Apparent Right ascension
Unknown
Apparent Declination
Unknown
Sunlit
N/A
Visualization observer readout
Local Sidereal Time
07:59:07
Azimuth
Unknown
Elevation
Unknown
Doppler factor
Unknown
Orbital elements
Apogee altitude
839.816 km
Perigee altitude
799.484 km
Semi-major axis
7,197.787 km
Eccentricity
0.0028
Inclination
98.6657°
RAAN
42.8894°
Arg. of periapsis
210.8709°
True anomaly
149.24666°
Mean anomaly
149.0822°
Eccentric anomaly
149.16448°
Mean motion
3.55422 °/min
Orbital period
101.29 mins
BSTAR
0.0022637
Loading maneuver chart data...
Computing Atmospheric mass density...

Documentation

Showing up to 5 results
|